Location: Unspecified
(0.0000°N, 0.0000°E)
Time: 08:05:59
(UTC+00:00)

DAWN - Visible Passes

Search period start: 11 August 2020 00:00
Search period end: 21 August 2020 00:00
Orbit: 8205 x 22982 km, 28.6° (Epoch: 27 September)

Date Brightness Start Highest point End Pass type
(mag) Time Alt. Az. Time Alt. Az. Time Alt. Az.
11 Aug ? 03:07:30 43° SW 03:30:54 74° SSE 04:29:24 10° ENE visible
11 Aug ? 14:02:00 10° WNW 18:33:10 70° WSW 20:34:09 27° SE visible
12 Aug ? 19:49:35 10° WNW 00:09:36 40° SE 00:38:30 10° E visible
14 Aug ? 03:11:06 43° SW 03:34:39 77° SSE 04:35:28 10° ENE visible
14 Aug ? 14:08:39 10° WNW 18:44:07 67° SW 20:38:17 28° SE visible
15 Aug ? 20:36:48 10° W 00:13:13 41° SE 00:43:36 10° E visible
17 Aug ? 03:14:43 43° SW 03:38:22 81° SE 04:41:43 10° ENE visible
17 Aug ? 14:15:29 10° WNW 18:57:03 63° SW 20:42:21 28° SE visible
18 Aug ? 21:27:45 10° W 00:16:50 44° SE 00:48:43 10° E visible
20 Aug ? 03:18:19 43° SW 03:42:04 85° SE 04:48:12 10° ENE visible
20 Aug ? 14:22:36 10° WNW 19:12:03 60° SW 20:46:20 29° SE visible
